Location: Albuquerque Trailhead
(34.7934°N, 106.3736°W)
Time: 09:37:44
(UTC+00:00)

N. Korean satellite - Visible Passes

Search period start: 08 December 2022 00:00
Search period end: 18 December 2022 00:00
Orbit: 421 x 452 km, 97.3° (Epoch: 07 December)

Date Brightness Start Highest point End Pass type
(mag) Time Alt. Az. Time Alt. Az. Time Alt. Az.
08 Dec 9.5 00:26:36 10° SW 00:29:02 19° W 00:31:32 10° NW visible
08 Dec 8.6 11:49:00 10° NE 11:51:54 26° E 11:54:44 10° SSE visible
08 Dec 8.3 13:22:40 10° NW 13:24:05 12° WNW 13:25:29 10° W visible
09 Dec 6.7 12:42:04 10° N 12:45:15 41° WNW 12:48:24 10° SSW visible
10 Dec 9.9 00:42:02 10° WSW 00:43:25 12° W 00:44:48 10° WNW visible
10 Dec 7.5 12:02:56 10° NNE 12:06:10 43° E 12:09:19 10° S visible
11 Dec 9.8 11:25:31 10° ENE 11:26:47 12° E 11:28:03 10° ESE visible
11 Dec 7.3 12:56:28 10° NNW 12:59:17 26° WNW 13:02:05 10° SW visible
12 Dec 6.4 12:16:50 10° NNE 12:20:10 74° ESE 12:23:27 10° S visible
13 Dec 9.2 11:38:24 10° NE 11:40:46 18° E 11:43:06 10° SE visible
13 Dec 7.9 13:10:51 10° NNW 13:13:05 17° WNW 13:15:17 10° WSW visible
14 Dec 6.2 12:31:34 18° N 12:33:55 65° WNW 12:37:09 10° SSW visible
15 Dec 9.6 00:29:31 10° SW 00:31:51 17° W 00:34:12 10° NW visible
15 Dec 8.4 11:52:23 15° NE 11:54:29 28° E 11:57:20 10° SSE visible
15 Dec 8.3 13:25:46 10° NW 13:26:37 11° WNW 13:27:38 10° W visible
16 Dec 6.7 12:46:22 29° NNW 12:47:25 38° WNW 12:50:29 10° SW visible
17 Dec 10.0 00:44:16 10° WSW 00:45:26 11° W 00:46:36 10° WNW visible
17 Dec 7.4 12:06:52 32° NE 12:07:57 45° E 12:11:05 10° S visible
